TimeEST,TemperatureF,Dew PointF,Humidity,Sea Level PressureIn,VisibilityMPH,Wind Direction,Wind SpeedMPH,Gust SpeedMPH,PrecipitationIn,Events,Conditions,WindDirDegrees,DateUTC
12:51 AM,19.0,-0.9,42,30.19,10.0,NW,19.6,-,N/A,,Clear,310,2014-01-28 05:51:00
1:51 AM,18.0,-0.9,44,30.22,10.0,NW,12.7,-,N/A,,Clear,310,2014-01-28 06:51:00
2:51 AM,17.1,-0.9,45,30.25,10.0,NW,15.0,-,N/A,,Clear,320,2014-01-28 07:51:00
3:51 AM,16.0,-0.0,49,30.27,10.0,NNW,15.0,26.5,N/A,,Clear,330,2014-01-28 08:51:00
4:51 AM,15.1,-0.9,49,30.31,10.0,NNW,18.4,31.1,N/A,,Clear,330,2014-01-28 09:51:00
5:51 AM,12.9,-5.1,45,30.35,10.0,NW,15.0,-,N/A,,Clear,320,2014-01-28 10:51:00
6:51 AM,12.0,-6.0,44,30.38,10.0,NW,16.1,-,N/A,,Clear,320,2014-01-28 11:51:00
7:51 AM,10.9,-5.1,49,30.39,10.0,NW,18.4,21.9,N/A,,Clear,310,2014-01-28 12:51:00
8:51 AM,12.0,-7.1,42,30.43,10.0,NW,13.8,24.2,N/A,,Clear,320,2014-01-28 13:51:00
9:51 AM,12.9,-6.0,43,30.45,10.0,NNW,16.1,-,N/A,,Clear,330,2014-01-28 14:51:00
10:51 AM,12.9,-5.1,45,30.45,10.0,NW,12.7,-,N/A,,Clear,320,2014-01-28 15:51:00
11:51 AM,12.9,-6.0,43,30.42,10.0,NW,8.1,-,N/A,,Scattered Clouds,310,2014-01-28 16:51:00
12:51 PM,16.0,-5.1,39,30.39,10.0,WNW,8.1,-,N/A,,Partly Cloudy,290,2014-01-28 17:51:00
1:51 PM,14.0,-6.0,41,30.38,10.0,NW,5.8,-,N/A,,Overcast,320,2014-01-28 18:51:00
2:51 PM,15.1,-5.1,41,30.38,10.0,WNW,8.1,-,N/A,,Overcast,290,2014-01-28 19:51:00
3:51 PM,15.1,-5.1,41,30.37,10.0,WNW,8.1,-,N/A,,Overcast,300,2014-01-28 20:51:00
4:51 PM,15.1,-4.0,43,30.37,10.0,WNW,9.2,-,N/A,,Overcast,300,2014-01-28 21:51:00
5:51 PM,14.0,-4.0,45,30.36,10.0,NW,9.2,-,N/A,,Overcast,310,2014-01-28 22:51:00
6:51 PM,14.0,-2.9,47,30.36,10.0,NW,6.9,-,N/A,,Overcast,310,2014-01-28 23:51:00
7:51 PM,14.0,-4.0,45,30.35,10.0,NW,8.1,-,N/A,,Overcast,320,2014-01-29 00:51:00
8:51 PM,14.0,-2.9,47,30.33,10.0,NNW,8.1,-,N/A,,Overcast,330,2014-01-29 01:51:00
9:51 PM,14.0,-2.9,47,30.32,10.0,NW,5.8,-,N/A,,Overcast,310,2014-01-29 02:51:00
10:51 PM,14.0,-2.0,49,30.30,10.0,NW,8.1,-,N/A,,Overcast,320,2014-01-29 03:51:00
11:51 PM,14.0,1.0,56,30.29,8.0,NNW,8.1,-,0.00,Snow,Light Snow,330,2014-01-29 04:51:00